This is the latest recevied weather packets stored in our database for station/object KB3GVC-13. If no packets are shown the sender has not sent any weather packets the latest 10 day(s).
| Time | Temp. | Humidity | Pressure | Rain* | Wind** | Luminosity | Snow |
|---|---|---|---|---|---|---|---|
| 1777526557 | 10° C | 99% | 1009.5 hPa | 0 mm | - | - | - |
| 1777526252 | 10° C | 99% | 1009.5 hPa | 0 mm | - | - | - |
| 1777525948 | 10° C | 99% | 1009.7 hPa | 0 mm | - | - | - |
| 1777525646 | 10° C | 99% | 1009.9 hPa | 0 mm | - | - | - |
| 1777525343 | 10° C | 99% | 1009.6 hPa | 0 mm | - | - | - |
| 1777525038 | 10° C | 99% | 1009.6 hPa | 0 mm | - | - | - |
| 1777524735 | 10° C | 99% | 1009.7 hPa | 1.78 mm | - | - | - |
| 1777524434 | 10° C | 99% | 1009.6 hPa | 3.05 mm | - | - | - |
| 1777524129 | 10° C | 99% | 1009.5 hPa | 6.1 mm | - | - | - |
| 1777523826 | 10° C | 99% | 1009.6 hPa | 4.83 mm | - | - | - |
| 1777523522 | 10° C | 99% | 1010 hPa | 1.27 mm | - | - | - |
| 1777523219 | 10° C | 99% | 1010.2 hPa | 4.83 mm | - | - | - |
| 1777522915 | 10° C | 99% | 1010 hPa | 4.83 mm | - | - | - |
| 1777522612 | 10° C | 99% | 1009.9 hPa | 0 mm | - | - | - |
| 1777522309 | 10° C | 99% | 1010 hPa | 1.27 mm | - | - | - |
| 1777522006 | 10° C | 99% | 1010.1 hPa | 1.27 mm | - | - | - |
| 1777521702 | 10° C | 99% | 1010 hPa | 0 mm | - | - | - |
| 1777521399 | 10° C | 99% | 1009.5 hPa | 0 mm | - | - | - |
| 1777521096 | 10° C | 99% | 1009.5 hPa | 0 mm | - | - | - |
| 1777520793 | 10° C | 99% | 1009.5 hPa | 0 mm | - | - | - |
| 1777520490 | 10° C | 99% | 1009.6 hPa | 0 mm | - | - | - |
| 1777520187 | 10° C | 99% | 1009.9 hPa | 0 mm | - | - | - |
| 1777519885 | 10° C | 99% | 1009.9 hPa | 0 mm | - | - | - |
| 1777519582 | 9.44° C | 99% | 1009.6 hPa | 0 mm | - | - | - |
| 1777519278 | 9.44° C | 99% | 1009.5 hPa | 0 mm | - | - | - |
* Rain latest hour (hover to see other rain measurements)
** Current wind speed in m/s (hover to see current wind gust speed)